Zurück zum Katalog

ATLAS 5 CENTAUR DEB

AktivHEO
NORAD 46668·DEBRIS·🇺🇸 United States

Gestartet Oct 17, 2018 von Cape Canaveral Space Force Station

Loading…

Nächste Überflüge (nächste 24 Stunden)

TLE

AktuellSource: Space-Track

Epoche: Sep 14, 2026, 10:41 UTC

1 46668U 18079CW  26257.44568377 -.00000175  00000-0  00000-0 0  9995
2 46668  13.3655  25.6104 4657913 336.8796   7.5428  1.83703400 39813

Verfolge ATLAS 5 CENTAUR DEB in Echtzeit mit AllMySat

Download on the App Store